Regional Weather Roundup
Issued by NWS

Home | Current Version | Previous Version | Graphics & Text | Print | Product List | Glossary On
Versions: 1 2 3 4 5 6 7 8 9 10 11 12 13 14 15 16 17 18 19 20 21 22 23 24 25 26 27
000
ASUS45 KBOI 010210
RWRID

IDAHO REGIONAL WEATHER ROUNDUP
NATIONAL WEATHER SERVICE BOISE ID
800 PM MDT FRI SEP 30 2016

NOTE: "FAIR" INDICATES FEW OR NO CLOUDS BELOW 12000 FEET
WITH NO SIGNIFICANT WEATHER AND/OR OBSTRUCTIONS TO VISIBILITY

IDZ012-014-010300-
SOUTHWEST IDAHO


CITY           SKY/WX    TMP DP  RH WIND       PRES   REMARKS
BOISE          MOCLDY    77  32  19 SE10      29.84F
CALDWELL       MOCLDY    76  38  25 SE8       29.82F
MOUNTAIN HOME  CLEAR     75  43  31 SE12      29.86F
$$

IDZ016-017-010300-
SOUTHCENTRAL IDAHO


CITY           SKY/WX    TMP DP  RH WIND       PRES   REMARKS
BURLEY         CLEAR     68  49  50 SE9       29.98F
JEROME         PTCLDY    70  50  49 E14       29.97F
TWIN FALLS     PTCLDY    66  51  58 E8        29.97F
$$

IDZ019>023-010300-
SOUTHEAST IDAHO


CITY           SKY/WX    TMP DP  RH WIND       PRES   REMARKS
IDAHO FALLS    CLEAR     67  46  47 SE6       30.08F
POCATELLO      CLEAR     63  45  51 S9        30.06F
REXBURG        CLEAR     64  46  52 S5        30.10S
$$

IDZ006-010-011-018-031-032-010300-
CENTRAL IDAHO MOUNTAINS


CITY           SKY/WX    TMP DP  RH WIND       PRES   REMARKS
MCCALL         PTCLDY    64  31  28 E6        29.97F
HAILEY         PTCLDY    59  50  72 CALM      30.08F
STANLEY          N/A     55  36  48 S6        30.11F
SALMON         CLOUDY    57  45  62 CALM      29.98F
CHALLIS        PTCLDY    62  41  46 VRB6      30.04F
$$

IDZ002-004-006-007-026-010300-
NORTHERN IDAHO


CITY           SKY/WX    TMP DP  RH WIND       PRES   REMARKS
LEWISTON       CLOUDY    74  40  29 W5        29.78F
LOWELL           N/A     64  52  64 CALM      29.80S
COEUR D`ALENE  CLOUDY    65  53  65 NE7       29.87F
MULLAN PASS    MOCLDY    56  42  59 NW3       30.04F
$$




USA.gov is the U.S. government's official web portal to all federal, state and local government web resources and services.